Volver al catálogo

SL-8 R/B

ActivoPO
NORAD 10142·ROCKET BODY·🇷🇺 Russia

Lanzado Jul 13, 1977 desde Plesetsk Cosmodrome

Loading…

Próximos Pases (próximas 24 horas)

TLE

ActualizadoSource: Space-Track

Época: Sep 14, 2026, 07:10 UTC

1 10142U 77064B   26257.29906405  .00000097  00000-0  79829-4 0  9994
2 10142  82.9671  30.4022 0040769 318.4490  60.9538 13.78923893472994

Sigue SL-8 R/B en tiempo real con AllMySat

Download on the App Store